Location: Banff
(51.1667°N, 115.5667°W)
Time: 15:16:33
(UTC+00:00)

Altair - Pass Details

Date: 03 December 2020
Orbit: 1501 x 1682 km, 47.2° (Epoch: 15 January)

Event Time Altitude Azimuth Distance (km) Brightness Sun altitude
Rises 04:52:25 0° 250° (WSW) 4,719 10.5 -47.7°
Reaches altitude 10° 04:55:32 10° 248° (WSW) 3,715 9.8 -48.1°
Enters shadow 04:58:35 24° 244° (WSW) 2,773 8.9 -48.5°
